| time (UTC) | temp F | wind direction | speed knots | gust knots | rain 1hr in | rain 24hr in | rain mn in | humidity % | barometer mb |
| 20260506073029 | 57 | 240 | 0.0 | 1.7 | 0.00 | 0.46 | 0.01 | 99 | 1000.4 |
| 20260506072021 | 56 | 242 | 0.0 | 1.7 | 0.00 | 0.46 | 0.01 | 99 | 1000.2 |
| 20260506071028 | 56 | 268 | 0.0 | 7.0 | 0.00 | 0.46 | 0.01 | 99 | 1000.3 |
| 20260506062019 | 55 | 0.0 | 0.0 | 0.00 | 0.46 | 0.01 | 99 | 1000.3 | |
| 20260506061027 | 55 | 0.0 | 0.0 | 0.00 | 0.46 | 0.01 | 99 | 1000.3 | |
| 20260506051024 | 53 | 0.0 | 0.0 | 0.00 | 0.46 | 0.01 | 99 | 1000.7 | |
| 20260506045023 | 53 | 0.0 | 0.0 | 0.00 | 0.46 | 0.01 | 99 | 1000.6 | |
| 20260506044030 | 53 | 0.0 | 0.0 | 0.00 | 0.46 | 0.01 | 99 | 1000.5 | |
| 20260506043021 | 53 | 0.0 | 0.0 | 0.00 | 0.46 | 0.01 | 99 | 1000.3 | |
| 20260506042028 | 53 | 0.0 | 0.0 | 0.00 | 0.46 | 0.01 | 99 | 1000.5 | |
| 20260506041020 | 53 | 0.0 | 0.0 | 0.00 | 0.46 | 0.01 | 99 | 1000.4 | |
| 20260506040027 | 53 | 0.0 | 0.0 | 0.00 | 0.47 | 0.01 | 99 | 1000.5 | |
| 20260506035019 | 53 | 270 | 0.0 | 4.3 | 0.00 | 0.47 | 0.01 | 99 | 1000.3 |
| 20260506034025 | 53 | 270 | 0.0 | 1.7 | 0.00 | 0.47 | 0.01 | 99 | 1000.3 |
| 20260506033017 | 53 | 0.0 | 0.0 | 0.00 | 0.47 | 0.01 | 99 | 1000.3 | |
| 20260506032025 | 53 | 0.0 | 0.0 | 0.00 | 0.47 | 0.01 | 99 | 1000.3 | |
| 20260506031017 | 53 | 0.0 | 0.0 | 0.00 | 0.47 | 0.01 | 99 | 1000.3 | |
| 20260506030024 | 53 | 0.0 | 0.0 | 0.00 | 0.47 | 0.01 | 99 | 1000.4 | |
| 20260506025032 | 53 | 0.0 | 0.0 | 0.00 | 0.47 | 0.01 | 99 | 1000.5 | |
| 20260506024022 | 53 | 0.0 | 0.0 | 0.00 | 0.48 | 0.01 | 99 | 1000.6 | |
| 20260506023030 | 54 | 0.0 | 0.0 | 0.00 | 0.48 | 0.01 | 99 | 1000.6 | |
| 20260506022022 | 54 | 0.0 | 0.0 | 0.01 | 0.48 | 0.01 | 99 | 1000.5 | |
| 20260506021030 | 54 | 0.0 | 0.0 | 0.01 | 0.48 | 0.01 | 99 | 1000.7 | |
| 20260506020022 | 54 | 0.0 | 0.0 | 0.01 | 0.49 | 0.01 | 99 | 1000.8 | |
| 20260506015030 | 54 | 0.0 | 0.0 | 0.01 | 0.49 | 0.01 | 99 | 1000.8 | |
| 20260506014022 | 54 | 0.0 | 0.0 | 0.01 | 0.49 | 0.01 | 99 | 1000.9 | |
| 20260506013030 | 54 | 284 | 0.0 | 1.7 | 0.01 | 0.49 | 0.01 | 99 | 1000.9 |
| 20260506012022 | 54 | 0.0 | 0.0 | 0.00 | 0.48 | 0.00 | 99 | 1001.0 | |
| 20260506011030 | 54 | 0.0 | 0.0 | 0.00 | 0.48 | 0.00 | 99 | 1001.1 | |
| 20260506010021 | 54 | 0.0 | 0.0 | 0.00 | 0.48 | 0.00 | 99 | 1001.0 | |
| 20260506005029 | 54 | 0.0 | 0.0 | 0.00 | 0.48 | 0.00 | 99 | 1001.1 | |
| 20260506004021 | 54 | 0.0 | 0.0 | 0.00 | 0.48 | 0.00 | 99 | 1001.3 | |
| 20260506003029 | 54 | 0.0 | 0.0 | 0.00 | 0.48 | 0.00 | 99 | 1001.3 | |
| 20260506002021 | 54 | 0.0 | 0.0 | 0.00 | 0.48 | 0.00 | 99 | 1001.3 | |
| 20260506001029 | 53 | 0.0 | 0.0 | 0.00 | 0.48 | 0.00 | 99 | 1001.4 | |
| 20260506000021 | 53 | 0.0 | 0.0 | 0.00 | 0.48 | 0.00 | 99 | 1001.5 | |
| 20260505235029 | 53 | 0.0 | 0.0 | 0.00 | 0.48 | 0.00 | 99 | 1001.4 | |
| 20260505234020 | 53 | 0.0 | 0.0 | 0.00 | 0.48 | 0.00 | 99 | 1001.4 | |
| 20260505233028 | 53 | 0.0 | 0.0 | 0.00 | 0.48 | 0.00 | 99 | 1001.5 | |
| 20260505232020 | 53 | 0.0 | 0.0 | 0.00 | 0.48 | 0.00 | 99 | 1001.5 | |
| 20260505231027 | 53 | 0.0 | 0.0 | 0.00 | 0.48 | 0.00 | 99 | 1001.4 | |
| 20260505230019 | 53 | 0.0 | 0.0 | 0.00 | 0.48 | 0.00 | 99 | 1001.3 | |
| 20260505225027 | 53 | 0.0 | 0.0 | 0.00 | 0.48 | 0.00 | 99 | 1001.1 | |
| 20260505224019 | 53 | 0.0 | 0.0 | 0.00 | 0.48 | 0.00 | 99 | 1001.2 | |
| 20260505223027 | 53 | 0.0 | 0.0 | 0.00 | 0.48 | 0.00 | 99 | 1001.0 | |
| 20260505222019 | 53 | 0.0 | 0.0 | 0.00 | 0.48 | 0.00 | 99 | 1001.0 | |
| 20260505221027 | 53 | 0.0 | 0.0 | 0.00 | 0.48 | 0.00 | 99 | 1001.0 | |
| 20260505220019 | 54 | 0.0 | 0.0 | 0.00 | 0.48 | 0.00 | 99 | 1001.1 | |
| 20260505215019 | 54 | 0.0 | 0.0 | 0.00 | 0.48 | 0.48 | 99 | 1001.3 | |
| 20260505214026 | 54 | 0.0 | 0.0 | 0.00 | 0.48 | 0.48 | 99 | 1001.3 | |
| 20260505213017 | 54 | 0.0 | 0.0 | 0.00 | 0.48 | 0.48 | 99 | 1001.5 | |
| 20260505212020 | 54 | 0.0 | 0.0 | 0.00 | 0.48 | 0.48 | 99 | 1001.7 | |
| 20260505211028 | 54 | 0.0 | 0.0 | 0.00 | 0.48 | 0.48 | 99 | 1001.4 | |
| 20260505210019 | 54 | 0.0 | 0.0 | 0.00 | 0.48 | 0.48 | 99 | 1001.3 | |
| 20260505205025 | 54 | 0.0 | 0.0 | 0.00 | 0.48 | 0.48 | 99 | 1001.4 | |
| 20260505204032 | 54 | 0.0 | 0.0 | 0.00 | 0.48 | 0.48 | 99 | 1001.3 | |
| 20260505203024 | 54 | 0.0 | 0.0 | 0.00 | 0.48 | 0.48 | 99 | 1001.2 | |
| 20260505202031 | 54 | 0.0 | 0.0 | 0.00 | 0.48 | 0.48 | 99 | 1001.2 | |
| 20260505201022 | 54 | 0.0 | 0.0 | 0.01 | 0.48 | 0.48 | 99 | 1001.1 | |
| 20260505200029 | 54 | 0.0 | 0.0 | 0.02 | 0.48 | 0.48 | 99 | 1000.9 | |
| 20260505195020 | 54 | 0.0 | 0.0 | 0.06 | 0.48 | 0.48 | 99 | 1000.9 | |
| 20260505194027 | 55 | 0.0 | 0.0 | 0.10 | 0.48 | 0.48 | 99 | 1001.0 | |
| 20260505193018 | 55 | 0.0 | 0.0 | 0.13 | 0.48 | 0.48 | 99 | 1000.9 | |
| 20260505192025 | 55 | 0.0 | 0.0 | 0.14 | 0.48 | 0.48 | 99 | 1001.1 | |
| 20260505191030 | 55 | 174 | 0.0 | 1.7 | 0.15 | 0.47 | 0.47 | 99 | 1000.9 |
| 20260505190021 | 55 | 270 | 0.0 | 1.7 | 0.19 | 0.46 | 0.46 | 99 | 1000.9 |
| 20260505185030 | 55 | 270 | 0.0 | 1.7 | 0.20 | 0.42 | 0.42 | 99 | 1000.7 |
| 20260505184028 | 55 | 270 | 0.0 | 1.7 | 0.22 | 0.38 | 0.38 | 99 | 1000.8 |
| 20260505183017 | 55 | 274 | 0.9 | 4.3 | 0.23 | 0.35 | 0.35 | 99 | 1000.5 |
| 20260505182022 | 55 | 103 | 0.9 | 4.3 | 0.27 | 0.34 | 0.34 | 99 | 1000.6 |
| 20260505181028 | 55 | 0.0 | 0.0 | 0.26 | 0.32 | 0.32 | 99 | 1000.7 | |
| 20260505180018 | 55 | 0.0 | 0.0 | 0.23 | 0.27 | 0.27 | 99 | 1000.8 | |
| 20260505175024 | 56 | 273 | 0.9 | 4.3 | 0.19 | 0.22 | 0.22 | 99 | 1001.0 |
| 20260505174022 | 56 | 273 | 0.9 | 11.3 | 0.13 | 0.16 | 0.16 | 98 | 1000.8 |
| 20260505173028 | 58 | 277 | 4.3 | 17.4 | 0.09 | 0.12 | 0.12 | 97 | 1000.8 |
| 20260505172020 | 60 | 275 | 7.8 | 20.0 | 0.04 | 0.07 | 0.07 | 95 | 1000.8 |
| 20260505171026 | 62 | 271 | 4.3 | 13.0 | 0.03 | 0.06 | 0.06 | 92 | 1000.2 |
| 20260505170016 | 63 | 271 | 2.6 | 8.7 | 0.01 | 0.04 | 0.04 | 86 | 1000.2 |
| 20260505165022 | 63 | 289 | 0.9 | 4.3 | 0.00 | 0.03 | 0.03 | 80 | 999.9 |
| 20260505164029 | 63 | 95 | 1.7 | 7.0 | 0.00 | 0.03 | 0.03 | 78 | 999.9 |
| 20260505163021 | 63 | 89 | 1.7 | 7.0 | 0.00 | 0.03 | 0.03 | 78 | 1000.0 |
| 20260505162029 | 63 | 90 | 0.9 | 4.3 | 0.00 | 0.03 | 0.03 | 79 | 999.9 |
| 20260505161019 | 63 | 285 | 0.0 | 1.7 | 0.00 | 0.03 | 0.03 | 81 | 1000.2 |
| 20260505153031 | 65 | 93 | 0.9 | 4.3 | 0.00 | 0.03 | 0.03 | 70 | 1000.3 |
| 20260505152022 | 66 | 96 | 0.9 | 4.3 | 0.00 | 0.03 | 0.03 | 69 | 1000.4 |
| 20260505151025 | 66 | 90 | 0.0 | 4.3 | 0.00 | 0.03 | 0.03 | 68 | 1000.3 |
| 20260505125016 | 74 | 270 | 1.7 | 7.0 | 0.00 | 0.03 | 0.03 | 49 | 1002.0 |
| 20260505124024 | 74 | 93 | 1.7 | 7.0 | 0.00 | 0.03 | 0.03 | 49 | 1002.1 |
| 20260505123016 | 74 | 289 | 0.9 | 7.0 | 0.00 | 0.03 | 0.03 | 49 | 1002.3 |
| 20260505122024 | 73 | 282 | 1.7 | 7.0 | 0.00 | 0.03 | 0.03 | 50 | 1002.2 |
| 20260505121016 | 73 | 269 | 0.9 | 7.0 | 0.00 | 0.03 | 0.03 | 48 | 1002.4 |
| 20260505120022 | 72 | 267 | 0.9 | 7.0 | 0.00 | 0.03 | 0.03 | 49 | 1002.4 |
| 20260505115030 | 72 | 86 | 1.7 | 8.7 | 0.00 | 0.03 | 0.03 | 50 | 1002.4 |
| 20260505114022 | 73 | 271 | 2.6 | 7.0 | 0.00 | 0.03 | 0.03 | 49 | 1002.7 |
| 20260505113030 | 72 | 232 | 0.9 | 4.3 | 0.00 | 0.03 | 0.03 | 51 | 1002.9 |
| 20260505112022 | 71 | 270 | 0.9 | 7.0 | 0.00 | 0.03 | 0.03 | 51 | 1002.8 |
| 20260505111028 | 70 | 316 | 0.0 | 4.3 | 0.00 | 0.03 | 0.03 | 53 | 1002.9 |
| 20260505102017 | 67 | 99 | 0.9 | 4.3 | 0.00 | 0.03 | 0.03 | 61 | 1003.4 |
| 20260505101025 | 67 | 270 | 2.6 | 8.7 | 0.00 | 0.03 | 0.03 | 59 | 1003.7 |
| 20260505100017 | 65 | 212 | 0.0 | 4.3 | 0.00 | 0.03 | 0.03 | 69 | 1003.8 |
| 20260505095025 | 65 | 270 | 0.0 | 1.7 | 0.00 | 0.03 | 0.03 | 73 | 1003.9 |
| 20260505094017 | 64 | 94 | 0.9 | 7.0 | 0.00 | 0.03 | 0.03 | 75 | 1003.8 |
| 20260505093025 | 64 | 88 | 0.9 | 4.3 | 0.00 | 0.03 | 0.03 | 75 | 1003.8 |
| 20260505092017 | 64 | 94 | 0.9 | 4.3 | 0.00 | 0.03 | 0.03 | 75 | 1003.9 |
| 20260505091022 | 63 | 92 | 0.0 | 1.7 | 0.00 | 0.03 | 0.03 | 76 | 1003.7 |
| 20260505090029 | 63 | 105 | 0.0 | 1.7 | 0.00 | 0.03 | 0.03 | 78 | 1003.8 |
| 20260505085021 | 62 | 90 | 0.0 | 1.7 | 0.00 | 0.03 | 0.03 | 77 | 1003.8 |
| 20260505084029 | 62 | 121 | 0.0 | 4.3 | 0.00 | 0.03 | 0.03 | 81 | 1003.8 |
| 20260505083021 | 61 | 282 | 0.9 | 4.3 | 0.00 | 0.03 | 0.03 | 84 | 1003.9 |
| 20260505082029 | 60 | 276 | 0.9 | 4.3 | 0.00 | 0.03 | 0.03 | 86 | 1003.9 |
| 20260505081021 | 60 | 53 | 0.9 | 4.3 | 0.00 | 0.03 | 0.03 | 87 | 1004.0 |
| 20260505080027 | 60 | 279 | 0.9 | 4.3 | 0.00 | 0.03 | 0.03 | 88 | 1003.9 |